JASON-3

Last updated on Fri Oct 31 2025 00:02:29 GMT+0000 (Coordinated Universal Time)

1 41240U 16002A 25303.25506790 -.00000020 00000+0 16785-3 0 9999 2 41240 66.0413 249.2441 0007690 268.3470 91.6668 12.87626654457640
UTC large
Height (km)
Speed (km/s)
/
Latitude / Longitude
Inclination (degrees)
Orbital Period (minutes)
Azimuth
Elevation
Range (km)
Doppler Factor

Next 0 passes for location: London (51.5072 / 0.1276)

Sorry there are no passes over London.